Location: Norton
(51.3000°N, 0.8167°E)
Time: 17:53:21
(UTC+00:00)

Cosmos 1666 - Pass Details

Date: 03 March 2021
Orbit: 497 x 518 km, 82.5° (Epoch: 13 April)

Event Time Altitude Azimuth Distance (km) Brightness Sun altitude
Rises 18:30:06 0° 148° (SSE) 2,578 5.9 -8.4°
Reaches altitude 10° 18:32:45 10° 127° (SE) 1,702 4.8 -8.9°
Maximum altitude 18:35:12 17° 86° (E) 1,330 4.1 -9.2°
Drops below altitude 10° 18:37:39 10° 45° (NE) 1,716 4.9 -9.6°
Sets 18:40:20 0° 25° (NNE) 2,610 6.0 -10.0°
